• In Deutschland
  • Länderverzeichnis
  • Für 7 Tage
  • Wassertemperatur
  • Satellitenkarten
  • Wetterkarte
  • Widgets
  • user-avatar
    Anmelden

    Stündliche Wetter Durres

    Heute, 26 April, Mittwoch

    Zeit Temperatur Niederschläge Wind Luftdruck Luftfeuchtigkeit
    00:00 +11°C° 0 mm 4 m/S 763 mmHg 90%
    01:00 +11°C° 0 mm 4 m/S 763 mmHg 90%
    02:00 +11°C° 0 mm 4 m/S 763 mmHg 89%
    03:00 +10°C° 0 mm 4 m/S 763 mmHg 88%
    04:00 +10°C° 0 mm 4 m/S 762 mmHg 87%
    05:00 +12°C° 0 mm 4 m/S 762 mmHg 80%
    06:00 +14°C° 0 mm 4 m/S 762 mmHg 72%
    07:00 +15°C° 0 mm 4 m/S 762 mmHg 64%
    08:00 +18°C° 0 mm 4 m/S 762 mmHg 55%
    09:00 +20°C° 0 mm 4 m/S 762 mmHg 46%
    10:00 +22°C° 0 mm 4 m/S 762 mmHg 37%
    11:00 +22°C° 0 mm 5 m/S 762 mmHg 37%
    12:00 +22°C° 0 mm 6 m/S 762 mmHg 37%
    13:00 +23°C° 0 mm 7 m/S 762 mmHg 36%
    14:00 +22°C° 0 mm 7 m/S 762 mmHg 40%
    15:00 +22°C° 0 mm 7 m/S 761 mmHg 43%
    16:00 +21°C° 0 mm 7 m/S 761 mmHg 46%
    17:00 +19°C° 0 mm 6 m/S 761 mmHg 56%
    18:00 +16°C° 0 mm 5 m/S 761 mmHg 66%
    19:00 +14°C° 0 mm 5 m/S 762 mmHg 76%
    20:00 +13°C° 0 mm 5 m/S 762 mmHg 77%
    21:00 +13°C° 0 mm 4 m/S 762 mmHg 78%
    22:00 +12°C° 0 mm 4 m/S 762 mmHg 79%
    23:00 +12°C° 0 mm 4 m/S 762 mmHg 78%

    Morgen, 27 April, Donnerstag

    Zeit Temperatur Niederschläge Wind Luftdruck Luftfeuchtigkeit
    00:00 +12°C° 0 mm 4 m/S 762 mmHg 77%
    01:00 +12°C° 0 mm 4 m/S 762 mmHg 76%
    02:00 +12°C° 0 mm 4 m/S 762 mmHg 74%
    03:00 +12°C° 0 mm 4 m/S 761 mmHg 72%
    04:00 +12°C° 0 mm 4 m/S 761 mmHg 70%
    05:00 +14°C° 0 mm 4 m/S 761 mmHg 64%
    06:00 +17°C° 0 mm 4 m/S 761 mmHg 58%
    07:00 +19°C° 0 mm 4 m/S 761 mmHg 52%
    08:00 +20°C° 0 mm 4 m/S 761 mmHg 46%
    09:00 +22°C° 0 mm 4 m/S 761 mmHg 40%
    10:00 +25°C° 0 mm 4 m/S 761 mmHg 34%
    11:00 +25°C° 0 mm 4 m/S 761 mmHg 34%
    12:00 +26°C° 0 mm 5 m/S 761 mmHg 34%
    13:00 +26°C° 0 mm 6 m/S 760 mmHg 33%
    14:00 +24°C° 0 mm 6 m/S 760 mmHg 36%
    15:00 +24°C° 0 mm 6 m/S 760 mmHg 38%
    16:00 +23°C° 0 mm 6 m/S 760 mmHg 40%
    17:00 +21°C° 0 mm 6 m/S 760 mmHg 49%
    18:00 +17°C° 0 mm 5 m/S 760 mmHg 59%
    19:00 +15°C° 0 mm 5 m/S 760 mmHg 68%
    20:00 +14°C° 0 mm 5 m/S 760 mmHg 68%
    21:00 +14°C° 0 mm 5 m/S 760 mmHg 68%
    22:00 +14°C° 0 mm 5 m/S 761 mmHg 68%
    23:00 +14°C° 0 mm 5 m/S 760 mmHg 65%

    übermorgen, 28 April, Freitag

    Zeit Temperatur Niederschläge Wind Luftdruck Luftfeuchtigkeit
    00:00 +14°C° 0 mm 5 m/S 760 mmHg 63%
    01:00 +15°C° 0 mm 5 m/S 760 mmHg 60%
    02:00 +14°C° 0 mm 5 m/S 760 mmHg 61%
    03:00 +14°C° 0 mm 5 m/S 760 mmHg 61%
    04:00 +13°C° 0 mm 6 m/S 760 mmHg 61%
    05:00 +15°C° 0 mm 5 m/S 760 mmHg 56%
    06:00 +17°C° 0 mm 5 m/S 760 mmHg 51%
    07:00 +20°C° 0 mm 5 m/S 759 mmHg 46%
    08:00 +22°C° 0 mm 6 m/S 759 mmHg 41%
    09:00 +24°C° 0 mm 7 m/S 759 mmHg 36%
    10:00 +26°C° 0 mm 7 m/S 759 mmHg 31%
    11:00 +27°C° 0 mm 8 m/S 759 mmHg 32%
    12:00 +27°C° 0 mm 9 m/S 758 mmHg 32%
    13:00 +28°C° 0 mm 10 m/S 758 mmHg 33%
    14:00 +26°C° 0,1 mm 9 m/S 758 mmHg 38%
    15:00 +24°C° 0,1 mm 8 m/S 758 mmHg 43%
    16:00 +23°C° 0,1 mm 8 m/S 758 mmHg 48%
    17:00 +21°C° 0,1 mm 8 m/S 758 mmHg 53%
    18:00 +18°C° 0,1 mm 7 m/S 758 mmHg 58%
    19:00 +16°C° 0,1 mm 7 m/S 758 mmHg 64%
    20:00 +16°C° 0 mm 7 m/S 758 mmHg 62%
    21:00 +16°C° 0 mm 7 m/S 758 mmHg 61%
    22:00 +16°C° 0 mm 6 m/S 759 mmHg 60%
    23:00 +16°C° 0 mm 6 m/S 758 mmHg 60%

    29 April, Samstag

    Zeit Temperatur Niederschläge Wind Luftdruck Luftfeuchtigkeit
    00:00 +16°C° 0 mm 6 m/S 758 mmHg 60%
    01:00 +15°C° 0 mm 5 m/S 758 mmHg 61%
    02:00 +15°C° 0 mm 5 m/S 758 mmHg 60%
    03:00 +15°C° 0 mm 5 m/S 758 mmHg 59%
    04:00 +15°C° 0 mm 4 m/S 758 mmHg 58%
    05:00 +17°C° 0,1 mm 4 m/S 758 mmHg 56%
    06:00 +18°C° 0,1 mm 3 m/S 758 mmHg 54%
    07:00 +20°C° 0,1 mm 3 m/S 758 mmHg 51%
    08:00 +21°C° 0,3 mm 3 m/S 758 mmHg 50%
    09:00 +22°C° 0,3 mm 3 m/S 758 mmHg 48%
    10:00 +22°C° 0,3 mm 3 m/S 758 mmHg 46%
    11:00 +24°C° 0,2 mm 3 m/S 758 mmHg 46%
    12:00 +23°C° 0,2 mm 4 m/S 758 mmHg 46%
    13:00 +25°C° 0,2 mm 4 m/S 758 mmHg 46%
    14:00 +23°C° 0,1 mm 4 m/S 758 mmHg 51%
    15:00 +22°C° 0,1 mm 4 m/S 758 mmHg 56%
    16:00 +21°C° 0,1 mm 4 m/S 758 mmHg 62%
    17:00 +20°C° 0,3 mm 3 m/S 758 mmHg 69%
    18:00 +19°C° 0,3 mm 3 m/S 758 mmHg 77%
    19:00 +17°C° 0,3 mm 2 m/S 759 mmHg 85%
    20:00 +17°C° 0,1 mm 3 m/S 759 mmHg 84%
    21:00 +17°C° 0,1 mm 3 m/S 759 mmHg 83%
    22:00 +17°C° 0,1 mm 3 m/S 759 mmHg 82%
    23:00 +16°C° 0 mm 3 m/S 759 mmHg 81%

    30 April, Sonntag

    Zeit Temperatur Niederschläge Wind Luftdruck Luftfeuchtigkeit
    00:00 +15°C° 0 mm 4 m/S 759 mmHg 80%
    01:00 +15°C° 0 mm 4 m/S 759 mmHg 78%
    02:00 +15°C° 0 mm 4 m/S 758 mmHg 78%
    03:00 +15°C° 0 mm 4 m/S 758 mmHg 77%
    04:00 +15°C° 0 mm 4 m/S 758 mmHg 77%
    05:00 +17°C° 0 mm 4 m/S 758 mmHg 74%
    06:00 +18°C° 0 mm 4 m/S 758 mmHg 71%
    07:00 +20°C° 0 mm 4 m/S 759 mmHg 68%
    08:00 +21°C° 0 mm 4 m/S 759 mmHg 61%
    09:00 +23°C° 0 mm 4 m/S 758 mmHg 54%
    10:00 +26°C° 0 mm 4 m/S 758 mmHg 46%
    11:00 +27°C° 0 mm 5 m/S 758 mmHg 45%
    12:00 +27°C° 0 mm 5 m/S 758 mmHg 44%
    13:00 +28°C° 0 mm 6 m/S 757 mmHg 43%
    14:00 +27°C° 0,3 mm 6 m/S 757 mmHg 48%
    15:00 +26°C° 0,3 mm 6 m/S 757 mmHg 52%
    16:00 +26°C° 0,3 mm 6 m/S 757 mmHg 57%
    17:00 +23°C° 0,7 mm 5 m/S 757 mmHg 66%
    18:00 +21°C° 0,7 mm 5 m/S 757 mmHg 74%
    19:00 +19°C° 0,7 mm 4 m/S 757 mmHg 83%
    20:00 +18°C° 0,9 mm 4 m/S 758 mmHg 85%
    21:00 +18°C° 0,9 mm 3 m/S 758 mmHg 87%
    22:00 +18°C° 0,9 mm 3 m/S 758 mmHg 89%
    23:00 +18°C° 0,8 mm 3 m/S 758 mmHg 89%

    1 Mai, Montag

    Zeit Temperatur Niederschläge Wind Luftdruck Luftfeuchtigkeit
    00:00 +18°C° 0,8 mm 2 m/S 758 mmHg 89%
    01:00 +18°C° 0,8 mm 2 m/S 758 mmHg 90%
    02:00 +17°C° 0,3 mm 2 m/S 758 mmHg 89%
    03:00 +18°C° 0,3 mm 1 m/S 758 mmHg 89%
    04:00 +16°C° 0,3 mm 1 m/S 758 mmHg 89%
    05:00 +18°C° 0 mm 1 m/S 758 mmHg 84%
    06:00 +19°C° 0 mm 2 m/S 758 mmHg 80%
    07:00 +20°C° 0 mm 2 m/S 758 mmHg 76%
    08:00 +21°C° 0 mm 2 m/S 758 mmHg 69%
    09:00 +24°C° 0 mm 2 m/S 759 mmHg 63%
    10:00 +25°C° 0 mm 2 m/S 759 mmHg 56%
    11:00 +25°C° 0,1 mm 3 m/S 758 mmHg 57%
    12:00 +26°C° 0,1 mm 4 m/S 758 mmHg 58%
    13:00 +26°C° 0,1 mm 5 m/S 758 mmHg 59%
    14:00 +25°C° 0,1 mm 5 m/S 758 mmHg 63%
    15:00 +23°C° 0,1 mm 5 m/S 758 mmHg 67%
    16:00 +23°C° 0,1 mm 5 m/S 758 mmHg 71%
    17:00 +21°C° 0 mm 5 m/S 758 mmHg 78%
    18:00 +19°C° 0 mm 4 m/S 758 mmHg 85%
    19:00 +18°C° 0 mm 3 m/S 759 mmHg 92%
    20:00 +17°C° 0 mm 3 m/S 759 mmHg 92%
    21:00 +17°C° 0 mm 3 m/S 759 mmHg 93%
    22:00 +16°C° 0 mm 3 m/S 760 mmHg 93%
    23:00 +16°C° 0 mm 3 m/S 759 mmHg 93%
    Mehr zeigen